TimeEDT,TemperatureF,Dew PointF,Humidity,Sea Level PressureIn,VisibilityMPH,Wind Direction,Wind SpeedMPH,Gust SpeedMPH,PrecipitationIn,Events,Conditions,WindDirDegrees,DateUTC
12:13 AM,71.6,69.8,94,29.83,5.0,Calm,Calm,-,N/A,,Scattered Clouds,0,2013-06-27 04:13:00
12:45 AM,69.8,68.0,94,29.83,4.0,Calm,Calm,-,N/A,,Mostly Cloudy,0,2013-06-27 04:45:00
12:54 AM,69.8,66.2,88,29.83,4.0,Calm,Calm,-,N/A,,Scattered Clouds,0,2013-06-27 04:54:00
12:56 AM,69.1,66.9,93,29.83,4.0,Calm,Calm,-,N/A,,Scattered Clouds,0,2013-06-27 04:56:00
1:56 AM,69.1,66.9,93,29.81,5.0,Calm,Calm,-,N/A,,Clear,0,2013-06-27 05:56:00
2:56 AM,69.1,68.0,96,29.81,4.0,Calm,Calm,-,N/A,,Clear,0,2013-06-27 06:56:00
3:25 AM,68.0,66.2,94,29.81,4.0,Calm,Calm,-,N/A,,Scattered Clouds,0,2013-06-27 07:25:00
3:33 AM,68.0,66.2,94,29.80,4.0,Calm,Calm,-,N/A,,Mostly Cloudy,0,2013-06-27 07:33:00
3:56 AM,68.0,66.0,93,29.81,1.8,Calm,Calm,-,N/A,,Overcast,0,2013-06-27 07:56:00
4:01 AM,68.0,66.2,94,29.80,2.0,Calm,Calm,-,N/A,,Overcast,0,2013-06-27 08:01:00
4:14 AM,69.8,66.2,88,29.81,1.2,Calm,Calm,-,N/A,,Overcast,0,2013-06-27 08:14:00
4:42 AM,69.8,68.0,94,29.81,0.5,Calm,Calm,-,N/A,Fog,Fog,0,2013-06-27 08:42:00
4:54 AM,69.8,68.0,94,29.81,0.2,Calm,Calm,-,N/A,Fog,Fog,0,2013-06-27 08:54:00
4:56 AM,69.1,68.0,96,29.81,0.2,Calm,Calm,-,N/A,Fog,Fog,0,2013-06-27 08:56:00
5:56 AM,68.0,66.9,96,29.82,0.2,East,5.8,-,N/A,Fog,Fog,80,2013-06-27 09:56:00
6:15 AM,68.0,66.2,94,29.82,1.0,ENE,3.5,-,N/A,,Overcast,60,2013-06-27 10:15:00
6:56 AM,68.0,66.0,93,29.83,4.0,East,4.6,-,N/A,,Overcast,100,2013-06-27 10:56:00
7:51 AM,66.2,64.4,94,29.84,2.0,ESE,5.8,-,N/A,,Overcast,120,2013-06-27 11:51:00
7:56 AM,66.0,64.9,96,29.84,2.0,ESE,5.8,-,N/A,,Overcast,110,2013-06-27 11:56:00
8:56 AM,66.9,64.9,93,29.84,2.0,ENE,5.8,-,N/A,,Overcast,60,2013-06-27 12:56:00
9:03 AM,66.2,64.4,94,29.84,4.0,ENE,4.6,-,N/A,,Overcast,60,2013-06-27 13:03:00
9:56 AM,69.1,66.0,90,29.84,7.0,NE,5.8,-,N/A,,Overcast,50,2013-06-27 13:56:00
10:25 AM,71.6,66.2,83,29.82,7.0,NE,6.9,-,N/A,,Overcast,40,2013-06-27 14:25:00
10:56 AM,72.0,66.9,84,29.83,8.0,NE,4.6,-,N/A,,Overcast,40,2013-06-27 14:56:00
11:19 AM,73.4,66.2,78,29.80,9.0,Variable,3.5,-,N/A,,Scattered Clouds,0,2013-06-27 15:19:00
11:56 AM,77.0,69.1,76,29.80,10.0,SE,6.9,-,N/A,,Clear,130,2013-06-27 15:56:00
12:46 PM,71.6,64.4,78,29.80,9.0,ESE,8.1,-,N/A,,Mostly Cloudy,120,2013-06-27 16:46:00
12:56 PM,70.0,64.9,84,29.81,9.0,SE,5.8,-,N/A,,Overcast,140,2013-06-27 16:56:00
1:45 PM,69.8,64.4,83,29.80,9.0,SE,6.9,-,N/A,,Mostly Cloudy,130,2013-06-27 17:45:00
1:56 PM,69.1,66.0,90,29.80,9.0,SE,3.5,-,N/A,,Mostly Cloudy,130,2013-06-27 17:56:00
2:56 PM,70.0,66.9,90,29.79,10.0,ESE,4.6,-,N/A,,Overcast,110,2013-06-27 18:56:00
3:56 PM,71.1,66.9,87,29.78,10.0,South,5.8,-,N/A,,Overcast,170,2013-06-27 19:56:00
4:56 PM,70.0,66.9,90,29.78,10.0,South,4.6,-,N/A,,Overcast,170,2013-06-27 20:56:00
5:56 PM,70.0,66.9,90,29.77,10.0,Variable,3.5,-,N/A,,Overcast,0,2013-06-27 21:56:00
6:56 PM,70.0,66.9,90,29.77,10.0,Variable,3.5,-,N/A,,Overcast,0,2013-06-27 22:56:00
7:56 PM,69.1,66.9,93,29.77,4.0,SSE,3.5,-,N/A,,Overcast,150,2013-06-27 23:56:00
8:11 PM,68.0,66.2,94,29.77,2.0,SSE,3.5,-,N/A,,Overcast,160,2013-06-28 00:11:00
8:16 PM,68.0,66.2,94,29.77,1.5,SSE,3.5,-,N/A,,Overcast,160,2013-06-28 00:16:00
8:36 PM,68.0,66.2,94,29.76,0.8,SE,3.5,-,N/A,,Overcast,140,2013-06-28 00:36:00
8:56 PM,68.0,66.9,96,29.77,0.8,South,3.5,-,N/A,,Mist,180,2013-06-28 00:56:00
9:56 PM,69.1,68.0,96,29.78,1.0,SSW,6.9,-,N/A,,Overcast,200,2013-06-28 01:56:00
10:17 PM,69.8,68.0,94,29.77,0.8,SSW,6.9,-,0.01,,Overcast,210,2013-06-28 02:17:00
10:46 PM,69.8,68.0,94,29.77,1.5,SSW,6.9,-,0.01,,Overcast,200,2013-06-28 02:46:00
10:56 PM,68.0,68.0,100,29.77,1.0,SSW,6.9,-,0.01,,Overcast,200,2013-06-28 02:56:00
11:09 PM,68.0,68.0,100,29.76,0.5,South,5.8,-,N/A,Fog,Fog,190,2013-06-28 03:09:00
11:43 PM,69.8,68.0,94,29.75,2.0,South,4.6,-,N/A,,Overcast,180,2013-06-28 03:43:00
11:56 PM,69.1,68.0,96,29.76,0.8,South,4.6,-,N/A,,Overcast,190,2013-06-28 03:56:00